Amateur Radio Satellites - All Passes

Search period start: 22 May 2013 17:03
Search period end: 23 May 2013 17:03
Location: Chandler, 33.3060°N, 111.8410°W

Satellite Date Start Highest point End Downlink Frequencies (MHz)
Time Altitude Azimuth
SO-50 22 May 17:09:46 17:13:53 33° 56° (NE) 17:17:56 436.795 FM
PCSat 22 May 17:16:24 17:21:41 54° 249° (WSW) 17:26:55 145.825 MHz
JAS-1B 22 May 17:31:13 17:34:52 13° 60° (ENE) 17:38:21 435.800 - 435.900 CW/SSB
STRAND 1 22 May 17:35:15 17:37:18 12° 93° (E) 17:39:21 ?
Hamsat 22 May 17:45:52 17:47:58 14° 68° (ENE) 17:50:04 145.90 MHz
Sapphire 22 May 17:49:57 17:54:29 28° 253° (WSW) 17:58:59 437.095 MHz 1200 baud AX-25 AFSK
AO-7 22 May 17:54:49 18:01:44 29° 262° (W) 18:08:43 29.400 - 29.500 MHz
AO-40 22 May 18:07:23 03:11:48 54° 178° (S) 09:34:11 Beacon 2401.320
SO-67 22 May 18:30:40 18:31:49 11° 69° (ENE) 18:32:57 435.3500 MHz FM
SO-50 22 May 18:51:00 18:54:13 20° 250° (WSW) 18:57:26 436.795 FM
RS-15 22 May 18:54:18 19:02:41 21° 324° (NW) 19:10:53 29.354 - 29.394 USB, Beacon 29.352 USB
STRAND 1 22 May 19:11:45 19:16:49 61° 286° (WNW) 19:21:53 ?
JAS-1B 22 May 19:14:57 19:24:23 73° 74° (ENE) 19:32:32 435.800 - 435.900 CW/SSB
Hamsat 22 May 19:19:43 19:23:39 39° 262° (W) 19:27:38 145.90 MHz
HO-68 22 May 19:58:41 20:04:16 26° 63° (ENE) 20:09:51 435.675 MHz FM
SO-67 22 May 20:01:42 20:04:55 32° 262° (W) 20:08:10 435.3500 MHz FM
UOSAT-12 22 May 20:11:17 20:15:45 49° 58° (ENE) 20:20:12 437.025 FM, 437.400 FM
JAS-2 22 May 20:14:40 20:20:37 25° 64° (ENE) 20:26:39 435.800 - 435.900 CW/SSB, 435.910 FM
KITSAT 1 22 May 20:57:50 21:02:40 17° 102° (ESE) 21:07:30 435.175 FM
JAS-1B 22 May 21:08:15 21:15:03 22° 265° (W) 21:21:21 435.800 - 435.900 CW/SSB
Oscar 11 22 May 21:17:26 21:21:35 50° 74° (ENE) 21:25:46 145.825 FM, Beacon 2401.500 USB
OPAL 22 May 21:31:11 21:36:01 40° 70° (ENE) 21:40:50 ?
HO-68 22 May 21:44:35 21:51:29 53° 258° (WSW) 21:58:27 435.675 MHz FM
UOSAT-12 22 May 21:53:08 21:55:28 14° 252° (WSW) 21:57:49 437.025 FM, 437.400 FM
JAS-2 22 May 21:57:26 22:04:56 63° 259° (W) 22:12:45 435.800 - 435.900 CW/SSB, 435.910 FM
KITSAT 1 22 May 22:49:03 22:57:06 79° 297° (WNW) 23:05:13 435.175 FM
Oscar 11 22 May 22:57:06 22:58:03 11° 268° (W) 22:59:00 145.825 FM, Beacon 2401.500 USB
OPAL 22 May 23:11:14 23:14:59 20° 263° (W) 23:18:44 ?
RS-15 22 May 23:32:30 23:40:53 23° 38° (NE) 23:49:03 29.354 - 29.394 USB, Beacon 29.352 USB
MaSat-1 23 May 00:28:48 00:35:17 35° 107° (ESE) 00:40:58 437.345 MHz
KITSAT 1 23 May 00:48:57 00:53:48 17° 317° (NW) 00:58:41 435.175 FM
Uribyol 2 23 May 01:06:08 01:07:34 11° 92° (E) 01:08:59 436.500 FM
Oscar 19 23 May 01:07:50 01:10:27 14° 93° (E) 01:13:03 437.125 CW, 437.150 USB
RS-15 23 May 01:43:53 01:55:00 86° 62° (ENE) 02:05:53 29.354 - 29.394 USB, Beacon 29.352 USB
Oscar 16 23 May 01:45:19 01:50:14 43° 99° (E) 01:55:05 437.025 USB, Beacon 2401.1428
ISS 23 May 01:48:50 01:52:07 88° 136° (SE) 01:55:27 145.800 FM
AO-27 23 May 01:54:55 01:59:46 38° 99° (E) 02:04:36 436.795 MHz FM
ITAMSAT 1 23 May 02:01:25 02:06:23 43° 99° (E) 02:11:20 435.822 SSB
MaSat-1 23 May 02:10:48 02:17:23 38° 296° (WNW) 02:23:00 437.345 MHz
Uosat F 23 May 02:41:46 02:43:59 13° 93° (E) 02:46:11 435.120 FM
Uribyol 2 23 May 02:42:14 02:47:27 68° 285° (WNW) 02:52:37 436.500 FM
Oscar 19 23 May 02:45:03 02:50:05 54° 286° (WNW) 02:55:04 437.125 CW, 437.150 USB
AO-Echo 23 May 02:46:33 02:51:01 39° 99° (E) 02:55:34 ?
Oscar 16 23 May 03:25:42 03:29:13 19° 293° (WNW) 03:32:43 437.025 USB, Beacon 2401.1428
ISS 23 May 03:28:06 03:29:15 11° 332° (NNW) 03:30:24 145.800 FM
AO-27 23 May 03:35:07 03:39:00 22° 293° (WNW) 03:42:53 436.795 MHz FM
TMSAT-1 23 May 03:38:44 03:43:18 29° 97° (E) 03:47:50 436.925 FM
ITAMSAT 1 23 May 03:41:55 03:45:31 19° 293° (WNW) 03:49:07 435.822 SSB
RS-15 23 May 03:59:09 04:05:47 18° 260° (W) 04:12:25 29.354 - 29.394 USB, Beacon 29.352 USB
Gurwin Techsat 1B 23 May 04:00:11 04:05:30 75° 102° (ESE) 04:10:48 435.225 FM
Saudisat 1A 23 May 04:08:06 04:11:22 20° 109° (ESE) 04:14:40 436.775 MHz
AO-7 23 May 04:08:27 04:14:25 21° 95° (E) 04:20:20 29.400 - 29.500 MHz
Uosat F 23 May 04:18:09 04:23:04 57° 286° (WNW) 04:27:59 435.120 FM
AO-Echo 23 May 04:26:21 04:29:31 18° 292° (WNW) 04:32:44 ?
STRAND 1 23 May 04:47:58 04:50:03 13° 64° (ENE) 04:52:09 ?
Oscar 10/S400 23 May 05:09:39 08:05:32 63° 247° (WSW) 15:40:22 145.825 - 145.975 CW/USB, Beacon 145.810 USB
TMSAT-1 23 May 05:18:37 05:23:06 29° 290° (WNW) 05:27:35 436.925 FM
Gurwin Techsat 1B 23 May 05:43:05 05:44:47 12° 297° (WNW) 05:46:28 435.225 FM
Saudisat 1A 23 May 05:46:37 05:50:47 35° 304° (NW) 05:55:01 436.775 MHz
AO-7 23 May 05:59:23 06:07:41 70° 290° (WNW) 06:15:57 29.400 - 29.500 MHz
PCSat 23 May 06:11:08 06:16:00 36° 109° (ESE) 06:20:55 145.825 MHz
STRAND 1 23 May 06:23:37 06:28:39 65° 258° (WSW) 06:33:43 ?
Sapphire 23 May 06:43:33 06:48:54 71° 113° (ESE) 06:54:17 437.095 MHz 1200 baud AX-25 AFSK
KITSAT 1 23 May 06:47:43 06:54:19 26° 49° (NE) 07:00:52 435.175 FM
JAS-1B 23 May 07:08:17 07:12:06 18° 93° (E) 07:15:50 435.800 - 435.900 CW/SSB
Hamsat 23 May 07:10:04 07:14:19 49° 99° (E) 07:18:33 145.90 MHz
SO-50 23 May 07:21:09 07:25:22 31° 112° (ESE) 07:29:33 436.795 FM
SO-67 23 May 07:32:42 07:35:40 24° 96° (E) 07:38:37 435.3500 MHz FM
PCSat 23 May 07:54:58 07:59:27 26° 304° (NW) 08:03:57 145.825 MHz
AO-7 23 May 07:55:54 07:58:57 12° 308° (NW) 08:01:59 29.400 - 29.500 MHz
ISS 23 May 08:21:34 08:23:53 17° 33° (NNE) 08:26:11 145.800 FM
Sapphire 23 May 08:29:53 08:32:51 15° 310° (NW) 08:35:49 437.095 MHz 1200 baud AX-25 AFSK
KITSAT 1 23 May 08:42:14 08:50:15 66° 248° (WSW) 08:58:15 435.175 FM
Hamsat 23 May 08:48:11 08:49:56 12° 293° (WNW) 08:51:40 145.90 MHz
JAS-1B 23 May 08:57:33 09:03:06 44° 290° (WNW) 09:08:25 435.800 - 435.900 CW/SSB
SO-50 23 May 09:01:57 09:05:57 26° 306° (NW) 09:09:56 436.795 FM
SO-67 23 May 09:06:49 09:08:53 15° 290° (WNW) 09:10:58 435.3500 MHz FM
Oscar 11 23 May 09:11:26 09:13:25 13° 93° (E) 09:15:24 145.825 FM, Beacon 2401.500 USB
JAS-2 23 May 09:14:18 09:19:27 24° 92° (E) 09:24:08 435.800 - 435.900 CW/SSB, 435.910 FM
HO-68 23 May 09:16:55 09:23:28 38° 99° (E) 09:30:00 435.675 MHz FM
PANSAT 23 May 09:46:43 09:48:58 15° 159° (SSE) 09:51:12 not established
OPAL 23 May 09:47:05 09:49:42 14° 95° (E) 09:52:18 ?
ISS 23 May 09:57:31 10:00:45 44° 228° (SW) 10:03:57 145.800 FM
UOSAT-12 23 May 10:19:01 10:23:10 38° 113° (ESE) 10:27:23 437.025 FM, 437.400 FM
Oscar 11 23 May 10:45:40 10:49:48 43° 286° (WNW) 10:53:56 145.825 FM, Beacon 2401.500 USB
JAS-2 23 May 10:58:27 11:04:44 43° 291° (WNW) 11:10:19 435.800 - 435.900 CW/SSB, 435.910 FM
MaSat-1 23 May 11:00:54 11:03:39 30° 62° (ENE) 11:06:02 437.345 MHz
HO-68 23 May 11:04:41 11:11:00 35° 294° (WNW) 11:17:19 435.675 MHz FM
OPAL 23 May 11:24:01 11:28:50 50° 289° (WNW) 11:33:36 ?
PANSAT 23 May 11:25:20 11:28:52 33° 170° (S) 11:32:23 not established
UOSAT-12 23 May 12:00:13 12:03:28 19° 309° (NW) 12:06:44 437.025 FM, 437.400 FM
Uribyol 2 23 May 12:20:25 12:22:20 12° 63° (ENE) 12:24:14 436.500 FM
Oscar 19 23 May 12:21:14 12:23:58 15° 65° (ENE) 12:26:42 437.125 CW, 437.150 USB
Oscar 16 23 May 12:58:16 13:03:06 41° 72° (ENE) 13:07:58 437.025 USB, Beacon 2401.1428
PANSAT 23 May 13:05:16 13:08:56 39° 183° (S) 13:12:35 not established
AO-27 23 May 13:09:12 13:13:56 38° 71° (ENE) 13:18:42 436.795 MHz FM
ITAMSAT 1 23 May 13:15:31 13:20:22 43° 72° (ENE) 13:25:15 435.822 SSB
Uosat F 23 May 13:52:05 13:54:02 12° 64° (ENE) 13:55:58 435.120 FM
RS-15 23 May 13:54:02 14:01:06 18° 100° (E) 14:08:00 29.354 - 29.394 USB, Beacon 29.352 USB
AO-Echo 23 May 13:55:57 14:00:16 33° 72° (ENE) 14:04:31 ?
Uribyol 2 23 May 13:56:02 14:01:10 70° 258° (WSW) 14:06:21 436.500 FM
Oscar 19 23 May 13:57:41 14:02:47 58° 259° (W) 14:07:55 437.125 CW, 437.150 USB
Saudisat 1A 23 May 14:17:34 14:22:02 57° 59° (ENE) 14:26:23 436.775 MHz
Oscar 16 23 May 14:38:58 14:42:35 19° 266° (W) 14:46:12 437.025 USB, Beacon 2401.1428
PANSAT 23 May 14:45:46 14:48:56 24° 195° (SSW) 14:52:07 not established
AO-27 23 May 14:49:45 14:53:32 20° 265° (W) 14:57:20 436.795 MHz FM
TMSAT-1 23 May 14:55:39 15:00:12 30° 70° (ENE) 15:04:45 436.925 FM
ITAMSAT 1 23 May 14:56:33 15:00:01 18° 266° (W) 15:03:29 435.822 SSB
AO-7 23 May 15:03:50 15:09:39 22° 58° (ENE) 15:15:28 29.400 - 29.500 MHz
PCSat 23 May 15:04:41 15:07:23 14° 50° (NE) 15:10:04 145.825 MHz
Gurwin Techsat 1B 23 May 15:17:07 15:22:25 77° 76° (ENE) 15:27:43 435.225 FM
Uosat F 23 May 15:27:18 15:32:14 64° 258° (WSW) 15:37:13 435.120 FM
AO-Echo 23 May 15:35:27 15:39:04 21° 264° (W) 15:42:38 ?
Sapphire 23 May 15:36:26 15:40:49 24° 55° (NE) 15:45:10 437.095 MHz 1200 baud AX-25 AFSK
RS-15 23 May 15:59:48 16:11:58 87° 116° (ESE) 16:23:40 29.354 - 29.394 USB, Beacon 29.352 USB
Saudisat 1A 23 May 15:59:53 16:01:09 11° 253° (WSW) 16:02:25 436.775 MHz
SO-50 23 May 16:00:00 16:00:30 10° 45° (NE) 16:01:00 436.795 FM
TMSAT-1 23 May 16:35:37 16:40:02 27° 264° (W) 16:44:30 436.925 FM
PCSat 23 May 16:45:58 16:51:24 77° 246° (WSW) 16:56:47 145.825 MHz

Developed and maintained by Chris Peat, Heavens-Above GmbH. Please read the updated FAQ before sending e-mail. Imprint. DLR
